Regional Weather Roundup
Issued by NWS

Home | Current Version | Previous Version | Text Only | Print | Product List | Glossary Off
Versions: 1 2 3 4 5 6 7 8 9 10 11 12 13 14 15 16 17 18 19 20 21 22 23 24 25 26 27 28 29 30 31 32 33 34 35 36 37 38 39 40 41 42 43 44 45 46 47 48 49 50

000
ASUS43 KOAX 201210
RWRNE

WEATHER ROUNDUP FOR NEBRASKA
NATIONAL WEATHER SERVICE OMAHA NE
700 AM CDT FRI APR 20 2018

NOTES: SATELLITE DATA IS BEING USED TO AUGMENT CLOUD COVER ABOVE
       12000 FEET.
       "FAIR" INDICATES FEW OR NO CLOUDS BELOW 12,000 FEET WITH NO
       SIGNIFICANT WEATHER AND/OR OBSTRUCTIONS TO VISIBILITY.


NEZ001>004-019>022-054>056-201300-
NEBRASKA PANHANDLE

CITY           SKY/WX    TMP DP  RH WIND       PRES   REMARKS
SCOTTSBLUFF    CLOUDY    40  29  64 SE16      30.06S WCI  31
6HR MIN TEMP:  40; 6HR MAX TEMP:  45;

ALLIANCE       CLOUDY    40  28  62 SE24G36   30.08R WCI  29
6HR MIN TEMP:  40; 6HR MAX TEMP:  42;

CHADRON        CLOUDY    44  28  53 S9        30.08R
6HR MIN TEMP:  44; 6HR MAX TEMP:  47;

GORDON         FAIR      38  28  67 SE8       30.13S WCI  32
6HR MIN TEMP:  38; 6HR MAX TEMP:  44;

KIMBALL        CLOUDY    36  26  67 SE22G28   30.01S WCI  25
SIDNEY         CLOUDY    38  27  64 SE22G30   30.06S WCI  27
6HR MIN TEMP:  37; 6HR MAX TEMP:  41;

$$

NEZ057>060-069>072-079>082-201300-
SOUTHWEST NEBRASKA

CITY           SKY/WX    TMP DP  RH WIND       PRES   REMARKS
NORTH PLATTE   CLOUDY    43  27  53 S12       30.21S
6HR MIN TEMP:  36; 6HR MAX TEMP:  44;

IMPERIAL       CLOUDY    40  28  62 E17G26    30.16R WCI  31
6HR MIN TEMP:  38; 6HR MAX TEMP:  42;

LEXINGTON      CLOUDY    40  30  65 SE8       30.26S
MCCOOK         CLOUDY    42  27  55 SE14G20   30.21F
6HR MIN TEMP:  40; 6HR MAX TEMP:  43;

OGALLALA       CLOUDY    42  28  57 SE20G30   30.15S
$$

NEZ005>010-023>029-035>040-094-201300-
NORTH CENTRAL NEBRASKA

CITY           SKY/WX    TMP DP  RH WIND       PRES   REMARKS
VALENTINE      CLOUDY    33  28  81 E8        30.23S WCI  26
6HR MIN TEMP:  33; 6HR MAX TEMP:  38;

AINSWORTH      CLOUDY    37  29  72 S12       30.24F WCI  30
BROKEN BOW     CLOUDY    36  27  69 SE9       30.26F WCI  29
6HR MIN TEMP:  34; 6HR MAX TEMP:  40;

O`NEILL        CLOUDY    37  32  81 SE8       30.32S WCI  31
ORD            CLOUDY    35  28  75 SE6       30.29F WCI  30
6HR MIN TEMP:  30; 6HR MAX TEMP:  41;

THEDFORD       CLOUDY    41  28  61 SE13      30.23R
$$

NEZ041-046>049-061>064-073>077-083>087-201300-
SOUTH CENTRAL NEBRASKA

CITY           SKY/WX    TMP DP  RH WIND       PRES   REMARKS
GRAND ISLAND   CLOUDY    38  28  67 SE10      30.34R WCI  31
6HR MIN TEMP:  37; 6HR MAX TEMP:  41;

AURORA         CLOUDY    34  28  79 SE6       30.35R WCI  29
HASTINGS       CLOUDY    37  28  70 SE9       30.33R WCI  30
6HR MIN TEMP:  36; 6HR MAX TEMP:  44;

HEBRON         CLOUDY    38  31  76 SE7       30.36R WCI  33
HOLDREGE       CLOUDY    40  31  71 SE9       30.27S WCI  34
KEARNEY        CLOUDY    36  28  73 SE8       30.30F WCI  30
YORK             N/A     36  32  87 SE8       30.36R WCI  29
$$

NEZ011>018-030>034-042>045-201300-
NORTHEAST NEBRASKA

CITY           SKY/WX    TMP DP  RH WIND       PRES   REMARKS
NORFOLK        MOCLDY    33  28  81 SE7       30.37R WCI  27
6HR MIN TEMP:  32; 6HR MAX TEMP:  36;

ALBION         PTCLDY    33  29  86 SE7       30.35S WCI  27
BLAIR          CLOUDY    36  27  69 CALM      30.41R
COLUMBUS       MOCLDY    33  28  81 E8        30.39R WCI  26
FREMONT        CLOUDY    37  29  74 E6        30.41R WCI  32
TEKAMAH        PTCLDY    31  26  82 SE3       30.43R
6HR MIN TEMP:  27; 6HR MAX TEMP:  41;

WAYNE          CLOUDY    31  31  96 CALM      30.40S
$$

NEZ050>053-065>068-078-088>093-201300-
SOUTHEAST NEBRASKA

CITY           SKY/WX    TMP DP  RH WIND       PRES   REMARKS
LINCOLN        CLOUDY    34  27  75 CALM      30.41R
6HR MIN TEMP:  31; 6HR MAX TEMP:  39;

OMAHA EPPLEY   CLOUDY    36  27  69 SE7       30.44R WCI  30
6HR MIN TEMP:  35; 6HR MAX TEMP:  43;

BEATRICE       PTCLDY    38  30  72 E5        30.39R WCI  35
FALLS CITY     PTCLDY    35  27  72 E3        30.43
6HR MIN TEMP:  33; 6HR MAX TEMP:  42;

NEBRASKA CITY  CLOUDY    36  28  73 SE5       30.42R WCI  32
PLATTSMOUTH    CLOUDY    35  27  74 E8        30.43R HAZE    WCI  28
$$

NEZ044-045-051>053-067-201300-
OMAHA AREA

CITY           SKY/WX    TMP DP  RH WIND       PRES   REMARKS
OMAHA EPPLEY   CLOUDY    36  27  69 SE7       30.44R WCI  30
6HR MIN TEMP:  35; 6HR MAX TEMP:  43;

BLAIR          CLOUDY    36  27  69 CALM      30.41R
FREMONT        CLOUDY    37  29  74 E6        30.41R WCI  32
MILLARD        CLOUDY    37  28  68 SE3       30.43R
OFFUTT AFB     CLOUDY    28  24  83 E5        30.42R WCI  23
PLATTSMOUTH    CLOUDY    35  27  74 E8        30.43R HAZE    WCI  28
WAHOO          FAIR      32  25  74 SE5       30.41R WCI  28
$$




USA.gov is the U.S. government's official web portal to all federal, state and local government web resources and services.